Location: Newark
(45.2500°N, 7.5833°E)
Time: 02:11:58
(UTC+00:00)

BEESAT 2 - Pass Details

Date: 23 February 2020
Orbit: 494 x 533 km, 64.9° (Epoch: 06 April)

Event Time Altitude Azimuth Distance (km) Brightness Sun altitude
Rises 18:21:24 0° 336° (NNW) 2,686 ? -13.7°
Reaches altitude 10° 18:25:19 10° 14° (NNE) 1,795 ? -14.4°
Maximum altitude 18:26:24 11° 30° (NNE) 1,738 ? -14.6°
Enters shadow 18:26:48 11° 36° (NE) 1,745 ? -14.6°
